Weather reports worldwide

Advertisment
Chieming, Germany (10982): temperature & dewpoint: 12.01.2020 13:00:00 - 18.01.2020 13:00:00 (CET)Chieming, Germany (10982): temperature 5cm & temperature -5cm: 12.01.2020 13:00:00 - 18.01.2020 13:00:00 (CET)Chieming, Germany (10982): temperature -20cm & temperature -100cm: 12.01.2020 13:00:00 - 18.01.2020 13:00:00 (CET)Chieming, Germany (10982): wind speed & gusts: 12.01.2020 13:00:00 - 18.01.2020 13:00:00 (CET)Chieming, Germany (10982): wind direction: 12.01.2020 13:00:00 - 18.01.2020 13:00:00 (CET)Chieming, Germany (10982): reduced air pressure: 12.01.2020 13:00:00 - 18.01.2020 13:00:00 (CET)Chieming, Germany (10982): visibility: 12.01.2020 13:00:00 - 18.01.2020 13:00:00 (CET)Chieming, Germany (10982): sunshine duration: 12.01.2020 13:00:00 - 18.01.2020 13:00:00 (CET)Chieming, Germany (10982): precipitation: 12.01.2020 13:00:00 - 18.01.2020 13:00:00 (CET)
Date & Time tt [°C] td [°C] tt 5cm [°C] tt -5cm [°C] tt -20cm [°C] tt -100cm [°C] ff [km/h] ff [kn] fx [km/h] fx [kn] dd ppp [hPa] vv [km] sd [min] rr [mm]
18.01.2020 13:00:00 1,9 1,4 2,3 2,6 2,7 4,9 6 3 23 13 S 1028,9 13 0 0,6
18.01.2020 12:00:00 1,4 1,0 1,2 2,4 2,7 4,9 16 9 30 16 WSW 1029,5 8 0 0,8
18.01.2020 11:00:00 2,5 1,5 2,5 2,7 2,7 4,9 18 10 32 17 WSW 1029,3 36 0 0,0
18.01.2020 10:00:00 3,5 1,9 3,1 2,5 2,7 4,9 16 9 29 15 WSW 1028,7 29 0 0,1
18.01.2020 09:00:00 2,7 1,9 2,4 2,2 2,7 4,9 8 5 22 12 SW 1028,7 24 0 0,0
18.01.2020 08:00:00 2,0 1,4 1,8 2,3 2,7 4,9 16 9 35 19 SW 1028,6 20 0 0,4
18.01.2020 07:00:00 2,4 1,7 2,1 2,6 2,6 4,9 21 11 37 20 WSW 1027,9 20 0 1,4
18.01.2020 06:00:00 3,4 2,4 3,0 2,7 2,6 4,9 17 9 39 21 W 1026,8 14 0 1,9
18.01.2020 05:00:00 4,3 3,4 3,8 2,7 2,5 4,9 23 13 35 19 W 1025,6 9 0 1,1
18.01.2020 04:00:00 4,5 4,5 4,1 2,6 2,5 4,9 7 4 9 5 S 1024,8 4,0 0 0,6
18.01.2020 03:00:00 4,6 4,6 4,1 2,5 2,4 4,9 7 4 9 5 SSE 1024,5 6 0 1,5
18.01.2020 02:00:00 4,5 4,5 3,9 2,3 2,4 4,9 6 3 15 8 SSW 1024,3 5 0 2,1
18.01.2020 01:00:00 5,0 4,0 4,1 2,0 2,4 4,9 12 7 18 10 SSW 1024,0 15 0 0,7
18.01.2020 00:00:00 4,7 3,9 3,9 1,7 2,4 4,9 8 5 20 11 SSW 1023,7 12 0 1,2
17.01.2020 23:00:00 4,2 -0,7 2,7 1,4 2,5 4,9 6 3 9 5 SSW 1023,4 29 0 0,0
17.01.2020 22:00:00 2,8 -0,6 1,8 1,4 2,6 4,9 5 3 9 5 SE 1023,0 31 0 0,0
17.01.2020 21:00:00 3,1 -1,5 1,2 1,5 2,6 4,9 3 1 14 8 S 1022,7 35 0 0,0
17.01.2020 20:00:00 3,8 -1,4 0,2 1,7 2,7 4,9 6 4 12 7 SE 1022,1 23 0 0,0
17.01.2020 19:00:00 5,2 -1,5 0,8 2,1 2,7 4,9 6 3 9 5 SE 1021,8 40 0 0,0
17.01.2020 18:00:00 5,6 -1,3 1,3 2,9 2,6 4,9 3 2 13 7 SSW 1021,6 45 0 0,0
17.01.2020 17:00:00 8,2 -1,4 4,6 3,9 2,5 4,9 7 4 10 5 SSW 1020,6 47 23 0,0
17.01.2020 16:00:00 9,8 -0,3 8,9 4,8 2,2 4,9 7 4 10 5 S 1019,9 35 60 0,0
17.01.2020 15:00:00 10,7 -1,9 13,2 4,5 2,0 4,9 6 3 13 7 W 1019,8 32 60 0,0
17.01.2020 14:00:00 10,9 -1,9 12,5 3,2 1,9 4,9 6 4 11 6 WSW 1020,4 41 60 0,0
17.01.2020 13:00:00 10,4 -1,3 12,1 0,9 1,9 4,9 6 4 15 8 WSW 1020,9 31 60 0,0
17.01.2020 12:00:00 8,2 -0,6 8,5 0,6 2,0 4,9 12 7 17 9 S 1022,0 20 60 0,0
17.01.2020 11:00:00 6,0 -1,3 5,9 0,6 2,0 4,9 14 7 21 12 S 1023,0 18 60 0,0
17.01.2020 10:00:00 3,1 -1,7 2,0 0,6 2,0 4,9 5 3 10 5 S 1023,8 29 60 0,0
17.01.2020 09:00:00 -0,5 -2,1 -1,8 0,6 2,1 4,9 5 3 14 8 E 1025,2 24 32 0,0
17.01.2020 08:00:00 0,9 -2,7 -2,9 0,7 2,1 4,9 10 5 13 7 S 1024,9 40 0 0,0
17.01.2020 07:00:00 -1,2 -1,3 -3,6 0,7 2,1 4,9 4 2 8 4 ESE 1025,2 7 0 0,0
17.01.2020 06:00:00 -0,1 -0,3 -1,6 0,8 2,2 4,9 6 4 11 6 S 1024,8 7 0 0,0
17.01.2020 05:00:00 -1,2 -1,7 -2,1 0,9 2,2 4,9 10 5 11 6 SSE 1025,2 11 0 0,0
17.01.2020 04:00:00 -1,7 -2,6 -3,3 0,9 2,3 4,9 8 4 11 6 SW 1025,5 18 0 0,0
17.01.2020 03:00:00 -0,6 -1,9 -3,2 1,0 2,3 4,9 6 3 15 8 ENE 1025,3 22 0 0,0
17.01.2020 02:00:00 -1,0 -1,6 -2,8 1,0 2,4 4,9 11 6 15 8 ENE 1025,8 25 0 0,0
17.01.2020 01:00:00 0,0 -1,3 -2,2 1,1 2,4 4,9 13 7 17 9 E 1026,1 24 0 0,0
17.01.2020 00:00:00 0,1 -1,2 -1,5 1,2 2,5 5,0 11 6 14 8 E 1026,9 19 0 0,0
16.01.2020 23:00:00 1,4 -0,2 -1,6 1,3 2,6 5,0 6 3 12 7 ENE 1027,5 20 0 0,0
16.01.2020 22:00:00 0,8 -0,9 -1,5 1,4 2,7 5,0 10 5 13 7 ENE 1028,2 19 0 0,0
16.01.2020 21:00:00 1,9 -0,2 0,2 1,5 2,8 5,0 11 6 20 11 E 1028,5 15 0 0,0
16.01.2020 20:00:00 3,2 0,5 1,0 1,9 2,8 5,0 16 9 19 10 E 1028,7 20 0 0,0
16.01.2020 19:00:00 4,5 1,4 1,9 2,5 2,8 5,0 13 7 18 10 E 1028,7 16 0 0,0
16.01.2020 18:00:00 5,2 1,8 2,1 3,2 2,8 5,0 12 7 15 8 ENE 1028,8 15 0 0,0
16.01.2020 17:00:00 6,3 1,7 3,8 4,0 2,7 5,0 13 7 18 10 E 1028,7 31 0 0,0
16.01.2020 16:00:00 7,3 1,9 5,4 5,1 2,4 5,0 15 8 28 15 ENE 1028,3 32 30 0,0
16.01.2020 15:00:00 9,5 1,9 9,7 5,6 2,1 5,0 20 11 30 16 ENE 1027,8 24 59 0,0
16.01.2020 14:00:00 9,7 1,1 10,3 5,3 1,9 5,0 20 11 29 15 ENE 1028,3 25 60 0,0
16.01.2020 13:00:00 10,0 1,4 10,9 4,3 1,7 5,0 17 9 26 14 ENE 1029,0 28 60 0,0
16.01.2020 12:00:00 10,4 2,0 11,7 2,4 1,6 5,0 14 7 19 10 ENE 1029,8 31 60 0,0
16.01.2020 11:00:00 7,0 1,4 9,5 0,7 1,6 5,0 4 2 8 5 NE 1031,2 20 25 0,0
16.01.2020 10:00:00 4,6 2,7 5,0 0,6 1,6 5,0 3 2 11 6 E 1031,7 19 5 0,0
16.01.2020 09:00:00 4,3 2,0 3,0 0,6 1,6 5,0 9 5 13 7 E 1031,8 43 0 0,0
16.01.2020 08:00:00 5,5 -0,4 2,7 0,6 1,6 5,0 13 7 16 9 S 1031,3 15 0 0,1
16.01.2020 07:00:00 5,6 -1,7 3,5 0,6 1,6 5,0 8 4 11 6 S 1031,0 23 0 0,0
16.01.2020 06:00:00 4,9 -1,2 3,0 0,6 1,6 5,0 4 2 10 5 ESE 1030,9 35 0 0,0
16.01.2020 05:00:00 5,0 -1,8 3,5 0,6 1,6 5,0 6 3 12 6 S 1030,6 32 0 0,0
16.01.2020 04:00:00 4,5 -2,0 2,7 0,6 1,6 5,0 5 3 13 7 S 1030,4 27 0 0,0
16.01.2020 03:00:00 4,9 -2,4 1,9 0,6 1,6 5,0 9 5 16 9 S 1030,0 38 0 0,0
16.01.2020 02:00:00 4,0 -2,5 0,8 0,6 1,6 5,1 11 6 20 11 SSW 1029,7 44 0 0,0
16.01.2020 01:00:00 5,7 -2,6 2,8 0,6 1,7 5,1 14 8 20 11 S 1028,9 37 0 0,0
16.01.2020 00:00:00 4,9 -2,8 2,3 0,6 1,7 5,1 12 6 19 11 S 1028,7 43 0 0,0
15.01.2020 23:00:00 4,7 -3,0 2,1 0,6 1,7 5,1 12 7 18 10 S 1028,2 24 0 0,0
15.01.2020 22:00:00 5,5 -2,8 1,7 0,6 1,7 5,1 14 7 21 12 SSW 1027,2 52 0 0,0
15.01.2020 21:00:00 4,9 -3,4 0,7 0,6 1,7 5,1 10 5 13 7 S 1026,9 27 0 0,0
15.01.2020 20:00:00 4,3 -3,2 0,2 0,7 1,7 5,1 9 5 13 7 SSW 1026,3 55 0 0,0
15.01.2020 19:00:00 4,5 -3,2 0,3 0,8 1,7 5,1 10 5 12 7 S 1025,4 22 0 0,0
15.01.2020 18:00:00 4,2 -2,8 -0,3 1,0 1,7 5,1 3 2 8 4 S 1024,1 31 0 0,0
15.01.2020 17:00:00 6,7 -3,3 3,0 1,6 1,6 5,1 3 2 5 3 SSE 1022,3 33 21 0,0
15.01.2020 16:00:00 9,3 -2,8 8,3 2,1 1,5 5,1 3 2 8 4 WSW 1020,8 30 60 0,0
15.01.2020 15:00:00 8,6 -1,8 8,8 1,4 1,5 5,1 6 3 8 4 S 1020,4 25 60 0,0
15.01.2020 14:00:00 6,8 -2,7 9,6 0,3 1,5 5,1 4 2 10 5 W 1020,8 25 60 0,0
15.01.2020 13:00:00 5,0 -2,1 8,5 0,3 1,5 5,1 4 2 9 5 WNW 1021,7 16 60 0,0
15.01.2020 12:00:00 3,9 -3,8 6,7 0,3 1,5 5,1 8 4 11 6 W 1022,3 20 60 0,0
15.01.2020 11:00:00 2,9 -2,3 5,2 0,3 1,5 5,1 6 3 10 5 WNW 1022,5 22 60 0,0
15.01.2020 10:00:00 0,9 -3,7 1,4 0,2 1,5 5,1 7 4 10 6 E 1022,4 26 60 0,0
15.01.2020 09:00:00 0,5 -5,3 -0,5 0,3 1,5 5,1 3 2 8 5 S 1022,5 31 30 0,0
15.01.2020 08:00:00 -1,6 -5,6 -3,7 0,3 1,6 5,1 7 4 8 5 E 1023,0 34 0 0,0
15.01.2020 07:00:00 0,2 -3,2 -3,2 0,3 1,6 5,1 5 3 18 10 WNW 1022,4 31 0 0,0
15.01.2020 06:00:00 1,7 -6,1 -2,9 0,4 1,6 5,1 5 3 12 6 E 1022,0 45 0 0,0
15.01.2020 05:00:00 -1,1 -5,4 -3,0 0,4 1,6 5,2 10 5 13 7 E 1022,4 36 0 0,0
15.01.2020 04:00:00 -0,4 -5,6 -3,6 0,4 1,6 5,2 3 2 12 7 SSW 1022,7 28 0 0,0
15.01.2020 03:00:00 1,5 -5,7 -2,6 0,4 1,6 5,2 6 4 11 6 E 1022,2 31 0 0,0
15.01.2020 02:00:00 0,9 -5,4 -2,1 0,5 1,6 5,2 6 4 11 6 ENE 1022,3 56 0 0,0
15.01.2020 01:00:00 1,8 -5,7 -1,1 0,5 1,6 5,2 6 3 12 7 E 1022,0 31 0 0,0
15.01.2020 00:00:00 3,7 -6,3 -0,3 0,5 1,6 5,2 8 5 11 6 E 1021,8 36 0 0,0
14.01.2020 23:00:00 5,0 -6,0 1,1 0,5 1,6 5,2 3 2 7 4 ESE 1021,3 42 0 0,0
14.01.2020 22:00:00 2,8 -4,7 -0,3 0,5 1,6 5,2 8 4 11 6 ESE 1022,1 43 0 0,0
14.01.2020 21:00:00 4,6 -5,5 0,2 0,5 1,6 5,2 7 4 10 5 ESE 1021,6 37 0 0,0
14.01.2020 20:00:00 3,1 -4,6 -0,4 0,5 1,6 5,2 7 4 12 7 ESE 1022,1 30 0 0,0
14.01.2020 19:00:00 3,4 -4,1 -0,5 0,5 1,6 5,2 4 2 7 4 ESE 1021,9 35 0 0,0
14.01.2020 18:00:00 5,8 -2,8 -0,3 0,5 1,6 5,2 4 2 6 3 SSE 1020,9 23 0 0,0
14.01.2020 17:00:00 7,9 -3,2 2,6 0,6 1,5 5,2 3 2 10 5 SE 1020,1 39 23 0,0
14.01.2020 16:00:00 9,6 -1,1 8,2 0,4 1,5 5,2 0 0 6 3 N 1019,3 32 60 0,0
14.01.2020 15:00:00 9,8 -2,8 12,6 0,1 1,5 5,2 3 2 6 3 NW 1018,9 24 60 0,0
14.01.2020 14:00:00 9,8 -3,8 12,2 0,1 1,5 5,2 3 2 9 5 N 1018,7 30 60 0,0
14.01.2020 13:00:00 9,4 -3,8 10,1 0,1 1,6 5,2 0 0 7 4 N 1018,9 32 60 0,0
14.01.2020 12:00:00 7,7 -3,2 8,4 0,1 1,6 5,2 4 2 16 9 E 1019,7 30 60 0,0
14.01.2020 11:00:00 5,5 -2,6 6,3 0,1 1,6 5,2 3 2 11 6 SSE 1020,0 38 60 0,0
14.01.2020 10:00:00 2,9 -5,7 2,6 0,0 1,6 5,2 5 3 10 5 S 1020,1 32 57 0,0
14.01.2020 09:00:00 -1,7 -6,3 -3,2 0,1 1,6 5,2 2 1 10 6 SE 1021,2 41 31 0,0
14.01.2020 08:00:00 -0,1 -6,1 -4,3 0,1 1,7 5,2 5 3 9 5 SSE 1020,5 49 0 0,0
14.01.2020 07:00:00 -1,1 -5,9 -4,7 0,2 1,7 5,2 5 3 12 7 E 1020,4 59 0 0,0
14.01.2020 06:00:00 -1,0 -5,7 -4,0 0,2 1,7 5,3 5 3 12 6 E 1020,4 60 0 0,0
14.01.2020 05:00:00 -2,4 -5,8 -4,3 0,3 1,7 5,3 10 5 13 7 E 1020,7 29 0 0,0
14.01.2020 04:00:00 -0,5 -5,0 -4,5 0,3 1,8 5,3 4 2 8 5 SSE 1021,1 47 0 0,0
14.01.2020 03:00:00 -1,9 -5,2 -4,4 0,4 1,8 5,3 6 3 8 4 E 1021,9 29 0 0,0
14.01.2020 02:00:00 -1,3 -5,1 -3,8 0,4 1,8 5,3 4 2 7 4 E 1021,7 58 0 0,0
14.01.2020 01:00:00 -0,8 -5,0 -3,5 0,4 1,8 5,3 4 2 11 6 SSW 1021,4 33 0 0,0
14.01.2020 00:00:00 1,0 -4,7 -2,7 0,5 1,8 5,3 4 2 9 5 SE 1020,7 34 0 0,0
13.01.2020 23:00:00 -0,9 -4,6 -3,5 0,5 1,8 5,3 8 4 10 5 ESE 1022,1 32 0 0,0
13.01.2020 22:00:00 -0,8 -5,1 -3,1 0,5 1,8 5,3 8 5 11 6 E 1022,4 39 0 0,0
13.01.2020 21:00:00 -0,3 -4,5 -2,6 0,5 1,8 5,3 8 4 11 6 E 1022,7 57 0 0,0
13.01.2020 20:00:00 1,3 -4,4 -2,0 0,4 1,8 5,3 8 4 11 6 ESE 1022,8 29 0 0,0
13.01.2020 19:00:00 0,8 -4,0 -1,6 0,4 1,8 5,3 9 5 14 7 SE 1023,4 39 0 0,0
13.01.2020 18:00:00 1,2 -3,2 -1,6 0,4 1,8 5,3 6 3 11 6 SE 1023,7 28 0 0,0
13.01.2020 17:00:00 1,5 -3,5 0,5 0,4 1,9 5,3 7 4 9 5 SSE 1023,6 34 4 0,0
13.01.2020 16:00:00 3,5 -3,5 2,7 0,4 1,9 5,3 4 2 4 2 SSW 1023,2 31 60 0,0
13.01.2020 15:00:00 3,5 -2,8 3,5 0,4 1,9 5,3 3 2 6 3 SW 1022,9 34 12 0,0
13.01.2020 14:00:00 3,2 -3,2 3,7 0,4 1,9 5,3 3 2 7 4 W 1023,2 35 36 0,0
13.01.2020 13:00:00 2,7 -3,6 3,9 0,4 1,9 5,3 5 3 8 5 W 1024,0 35 59 0,0
13.01.2020 12:00:00 2,5 -3,8 4,3 0,4 2,0 5,3 5 3 6 3 W 1025,1 27 60 0,0
13.01.2020 11:00:00 1,8 -5,4 3,9 0,4 2,0 5,3 3 1 5 3 NNW 1026,2 28 59 0,0
13.01.2020 10:00:00 -0,6 -4,7 -0,5 0,4 2,0 5,3 4 2 11 6 E 1026,9 40 58 0,0
13.01.2020 09:00:00 -2,7 -5,7 -2,8 0,4 2,1 5,3 9 5 10 5 ENE 1028,0 37 30 0,0
13.01.2020 08:00:00 -2,9 -5,8 -5,0 0,4 2,1 5,3 8 5 9 5 E 1028,4 40 0 0,0
13.01.2020 07:00:00 -2,0 -5,9 -4,8 0,5 2,1 5,3 7 4 8 5 E 1028,6 55 0 0,0
13.01.2020 06:00:00 -2,9 -5,5 -4,7 0,5 2,2 5,3 5 3 8 4 E 1029,2 19 0 0,0
13.01.2020 05:00:00 -2,8 -5,5 -5,1 0,6 2,2 5,3 6 4 10 5 E 1029,7 53 0 0,0
13.01.2020 04:00:00 -3,7 -5,9 -5,3 0,7 2,3 5,3 10 5 10 6 E 1030,1 26 0 0,0
13.01.2020 03:00:00 -2,0 -4,7 -5,2 0,8 2,3 5,3 4 2 9 5 ESE 1030,3 36 0 0,0
13.01.2020 02:00:00 -2,7 -4,2 -4,7 0,8 2,3 5,3 6 3 9 5 E 1030,6 34 0 0,0
13.01.2020 01:00:00 -1,0 -4,0 -4,0 0,9 2,3 5,3 6 3 10 6 E 1030,3 22 0 0,0
13.01.2020 00:00:00 -1,7 -3,2 -3,5 0,9 2,3 5,3 6 3 9 5 ESE 1030,9 22 0 0,0
12.01.2020 23:00:00 -1,1 -3,0 -3,6 1,0 2,4 5,3 4 2 13 7 SSE 1031,0 25 0 0,0
12.01.2020 22:00:00 -0,4 -2,8 -2,8 1,0 2,4 5,3 3 1 7 4 WSW 1030,8 30 0 0,0
12.01.2020 21:00:00 -0,8 -2,8 -2,9 1,1 2,4 5,3 4 2 6 3 N 1030,7 17 0 0,0
12.01.2020 20:00:00 0,4 -2,4 -2,4 1,1 2,5 5,3 3 2 8 4 SE 1029,7 49 0 0,0
12.01.2020 19:00:00 -0,6 -2,8 -2,2 1,2 2,5 5,3 5 3 14 8 E 1029,4 24 0 0,0
12.01.2020 18:00:00 1,8 -2,5 -2,3 1,4 2,5 5,3 6 3 8 4 SE 1028,8 30 0 0,0
12.01.2020 17:00:00 3,7 -1,6 -1,1 2,0 2,4 5,3 3 1 5 3 NE 1027,9 33 18 0,0
12.01.2020 16:00:00 4,9 -1,6 5,3 2,6 2,4 5,3 3 2 6 3 WSW 1027,4 33 60 0,0
12.01.2020 15:00:00 5,6 -1,6 6,7 2,0 2,3 5,3 4 2 6 3 W 1027,7 27 60 0,0
12.01.2020 14:00:00 4,9 -2,9 7,2 0,7 2,4 5,3 4 2 8 4 W 1028,1 17 60 0,0
12.01.2020 13:00:00 3,0 -1,5 7,2 0,6 2,4 5,3 5 3 7 4 W 1028,8 24 60 0,0

tt = temperature
td = dewpoint
tt 5cm = temperature 5cm
tt -5cm = temperature -5cm
tt -20cm = temperature -20cm
tt -100cm = temperature -100cm
ff = wind speed
fx = gusts
dd = wind direction
ppp = reduced air pressure
vv = visibility
sd = sunshine duration
rr = precipitation

Next stations